Location: Rounton
(54.4000°N, 1.3500°W)
Time: 08:34:06
(UTC+00:00)

Vanguard 1 Rocket - Pass Details

Date: 30 November 2021
Orbit: 651 x 4224 km, 34.3° (Epoch: 19 January)

Event Time Altitude Azimuth Distance (km) Brightness Sun altitude
Rises 10:54:26 0° 275° (W) 7,837 12.0 12.8°
Reaches altitude 10° 11:04:02 10° 256° (WSW) 7,262 12.1 13.1°
Maximum altitude 11:14:10 14° 232° (SW) 7,055 12.4 13.4°
Drops below altitude 10° 11:24:25 10° 208° (SSW) 7,261 13.0 13.6°
Sets 11:34:20 0° 188° (S) 7,814 13.9 13.8°
